This demonstration page uses our WeatherBlox Daily Observations layout. Learn more.

Left ArrowRight Arrow

Hourly Observations for March 13, 2018

Temp ( °F °C ) Dew Point ( °F °C ) Humidity (%) Winds ( mph kmh ) Pressure ( in mb ) Visibility ( mi km ) Precip ( " mm )
12:19 am 00:19 Cloudy 37 2.8 32 0 82 82 NNW 26 43 29.68 1005 7 11 0.00 0.00
12:59 am 00:59 Cloudy 37 2.8 32 0 82 82 NNW 21 33 29.68 1005 8 13 0.00 0.00
1:59 am 01:59 Cloudy 37 2.8 32 0 82 82 NNW 25 41 29.71 1006 8 13 0.00 0.00
2:59 am 02:59 Cloudy 37 2.8 32 0 82 82 NW 21 33 29.72 1006 9 14 0.00 0.00
3:59 am 03:59 Mostly Cloudy 37 2.8 30 -1.1 76 76 NW 24 39 29.73 1007 10 16 0.00 0.00
4:59 am 04:59 Mostly Cloudy 36 2.2 28 -2.2 73 73 NW 24 39 29.76 1008 10 16 0.00 0.00
5:59 am 05:59 Mostly Cloudy 36 2.2 25 -3.9 64 64 NW 24 39 29.77 1008 10 16 0.00 0.00
6:59 am 06:59 Mostly Clear 36 2.2 22 -5.6 57 57 NW 22 35 29.79 1009 10 16 0.00 0.00
7:59 am 07:59 Sunny 36 2.2 23 -5 59 59 WNW 22 35 29.81 1010 10 16 0.00 0.00
8:59 am 08:59 Sunny 38 3.3 22 -5.6 52 52 WNW 29 46 29.84 1011 10 16 0.00 0.00
9:59 am 09:59 Sunny 40 4.4 23 -5 51 51 WNW 25 41 29.86 1011 10 16 0.00 0.00
10:59 am 10:59 Mostly Sunny 42 5.6 24 -4.4 49 49 WNW 22 35 29.87 1012 10 16 0.00 0.00
11:59 am 11:59 Mostly Sunny 43 6.1 24 -4.4 47 47 WNW 28 44 29.88 1012 10 16 0.00 0.00
12:59 pm 12:59 Mostly Sunny 46 7.8 23 -5 40 40 WNW 23 37 29.87 1012 10 16 0.00 0.00
1:59 pm 13:59 Partly Cloudy 47 8.3 24 -4.4 41 41 NW 23 37 29.86 1011 10 16 0.00 0.00
2:59 pm 14:59 Partly Cloudy 49 9.4 25 -3.9 39 39 W 20 31 29.85 1011 10 16 0.00 0.00
3:59 pm 15:59 Partly Cloudy 49 9.4 23 -5 36 36 undefined N/A 29.84 1011 10 16 0.00 0.00
4:59 pm 16:59 Partly Cloudy 50 10 22 -5.6 33 33 WNW 15 24 29.84 1011 10 16 0.00 0.00
5:59 pm 17:59 Partly Cloudy 48 8.9 22 -5.6 36 36 WNW 15 24 29.85 1011 10 16 0.00 0.00
6:59 pm 18:59 Partly Cloudy 46 7.8 23 -5 40 40 W 14 22 29.88 1012 10 16 0.00 0.00
7:59 pm 19:59 Partly Cloudy 46 7.8 23 -5 40 40 W 14 22 29.90 1013 10 16 0.00 0.00
8:59 pm 20:59 Mostly Cloudy 45 7.2 23 -5 42 42 W 10 17 29.92 1013 10 16 0.00 0.00
9:59 pm 21:59 Mostly Cloudy 43 6.1 22 -5.6 43 43 W 14 22 29.94 1014 10 16 0.00 0.00
10:59 pm 22:59 Partly Cloudy 41 5 22 -5.6 47 47 W 8 13 29.93 1014 10 16 0.00 0.00
11:59 pm 23:59 Partly Cloudy 40 4.4 22 -5.6 49 49 W 10 17 29.93 1013 10 16 0.00 0.00

Powered by AerisWeather